Location: Chochol
(49.7771°N, 14.9780°E)
Time: 16:37:13
(UTC+00:00)

Cosmos 2100 Rocket - Pass Details

Date: 09 April 2020
Orbit: 957 x 1000 km, 82.9° (Epoch: 25 May)

Event Time Altitude Azimuth Distance (km) Brightness Sun altitude
Rises 22:12:27 0° 350° (N) 3,670 8.2 -31.2°
Reaches altitude 10° 22:14:57 10° 351° (N) 2,724 7.2 -31.3°
Enters shadow 22:20:39 76° 2° (N) 1,012 4.0 -31.5°
